Change the Weather History Date:

Friday, April 12, 2013

  Actual Average Record
Temperature  
Mean Temperature 53 °F 56 °F  
Max Temperature 61 °F 67 °F 83 °F (2014)
Min Temperature 44 °F 46 °F 30 °F (2012)
Degree Days  
Heating Degree Days 12 10  
Month to date heating degree days 122 136  
Since 1 July heating degree days 4133 3989  
Cooling Degree Days 0 1  
Month to date cooling degree days 22 12  
Year to date cooling degree days 22 19  
Growing Degree Days 2 (Base 50)    
Moisture  
Dew Point 45 °F    
Average Humidity 65    
Maximum Humidity 93    
Minimum Humidity 37    
Precipitation  
Precipitation 0.10 in 0.12 in 0.95 in (2011)
Month to date precipitation 0.71 1.50  
Year to date precipitation 12.98 12.98  
Snow  
Snow 0.00 in 0.10 in - ()
Month to date snowfall 0.0 0.7  
Since 1 July snowfall 20.0 23.2  
Snow Depth 0.00 in    
Sea Level Pressure  
Sea Level Pressure 29.73 in    
Wind  
Wind Speed 7 mph (WSW)    
Max Wind Speed 17 mph    
Max Gust Speed 26 mph    
Visibility 9 miles    
Events Rain    
T = Trace of Precipitation, MM = Missing Value Source: NWS Daily Summary

Daily Weather History Graph

Daily Weather History Graph

Search for Another Location

Airport or City:

Trip Planner

Search our weather history database for the weather conditions in past years. The results will help you decide how hot, cold, wet, or windy it might be!

Date:

Astronomy

Apr. 12, 2013 Rise Set
Actual Time 7:02 AM EDT 8:06 PM EDT
Civil Twilight 6:35 AM EDT 8:33 PM EDT
Nautical Twilight 6:03 AM EDT 9:05 PM EDT
Astronomical Twilight 5:30 AM EDT 9:38 PM EDT
Moon 8:13 AM EDT (4/12) 10:33 PM EDT (4/12)
Length of Visible Light 13h 57m
Length of Day
13h 04m
Waxing Crescent, 5% of the Moon is Illuminated
Apr 12
Waxing Crescent
Apr 18
First Quarter
Apr 25
Full
May 2
Last Quarter
May 9
New

Hourly Weather History & Observations

Time (EDT) Temp. Windchill Dew Point Humidity Pressure Visibility Wind Dir Wind Speed Gust Speed Precip Events Conditions
12:53 AM 55.9 °F - 55.0 °F 97% 29.57 in 10.0 mi Variable 5.8 mph - 0.01 in   Overcast
1:20 AM 57.2 °F - 55.4 °F 94% 29.60 in 10.0 mi Calm Calm - N/A   Mostly Cloudy
1:28 AM 57.2 °F - 55.4 °F 94% 29.58 in 10.0 mi Calm Calm - N/A   Mostly Cloudy
1:38 AM 57.2 °F - 55.4 °F 94% 29.57 in 10.0 mi Calm Calm - N/A   Scattered Clouds
1:53 AM 57.0 °F - 55.0 °F 93% 29.53 in 10.0 mi Calm Calm - N/A   Partly Cloudy
2:53 AM 57.0 °F - 55.0 °F 93% 29.52 in 10.0 mi SSW 3.5 mph - N/A   Scattered Clouds
3:53 AM 57.9 °F - 55.0 °F 90% 29.51 in 10.0 mi Variable 4.6 mph - 0.00 in Rain Light Rain
4:19 AM 57.2 °F - 55.4 °F 94% 29.59 in 3.0 mi West 15.0 mph 23.0 mph 0.02 in Rain Rain
4:26 AM 57.2 °F - 55.4 °F 94% 29.58 in 2.0 mi West 9.2 mph 24.2 mph 0.07 in Rain Heavy Rain
4:30 AM 57.2 °F - 55.4 °F 94% 29.59 in 3.0 mi WSW 10.4 mph 18.4 mph 0.08 in Rain Rain
4:40 AM 55.4 °F - 53.6 °F 94% 29.61 in 7.0 mi West 13.8 mph 21.9 mph 0.09 in Rain Light Rain
4:53 AM 55.0 °F - 53.1 °F 93% 29.59 in 10.0 mi WSW 11.5 mph 25.3 mph 0.09 in   Overcast
5:42 AM 53.6 °F - 50.0 °F 88% 29.66 in 10.0 mi WSW 9.2 mph 24.2 mph 0.00 in Rain Light Rain
5:53 AM 52.0 °F - 50.0 °F 93% 29.64 in 10.0 mi WSW 10.4 mph 21.9 mph 0.00 in Rain Light Rain
6:28 AM 51.8 °F - 48.2 °F 88% 29.68 in 5.0 mi West 9.2 mph 17.3 mph 0.01 in Rain Light Rain
6:53 AM 50.0 °F - 48.0 °F 93% 29.67 in 5.0 mi West 11.5 mph 16.1 mph 0.01 in Rain Light Rain
7:08 AM 48.2 °F - 48.2 °F 100% 29.71 in 10.0 mi WSW 12.7 mph 21.9 mph 0.00 in Rain Light Rain
7:16 AM 48.2 °F - 46.4 °F 93% 29.72 in 10.0 mi WSW 13.8 mph 24.2 mph 0.00 in   Overcast
7:53 AM 46.0 °F 40.6 °F 43.0 °F 89% 29.74 in 9.0 mi West 11.5 mph 26.5 mph 0.00 in   Overcast
8:25 AM 44.6 °F 39.2 °F 42.8 °F 93% 29.78 in 6.0 mi WSW 10.4 mph 18.4 mph N/A   Overcast
8:53 AM 45.0 °F 39.7 °F 41.0 °F 86% 29.78 in 9.0 mi West 10.4 mph 18.4 mph N/A   Overcast
9:02 AM 44.6 °F 40.2 °F 42.8 °F 93% 29.80 in 10.0 mi WSW 8.1 mph 18.4 mph N/A   Overcast
9:53 AM 46.9 °F - 42.1 °F 83% 29.80 in 10.0 mi Variable 6.9 mph - N/A   Overcast
10:37 AM 50.0 °F - 42.8 °F 76% 29.81 in 10.0 mi SW 5.8 mph - N/A   Mostly Cloudy
10:49 AM 48.2 °F - 41.0 °F 76% 29.81 in 10.0 mi Variable 5.8 mph - N/A   Overcast
10:53 AM 48.9 °F - 41.0 °F 74% 29.81 in 10.0 mi WSW 8.1 mph - N/A   Overcast
11:24 AM 53.6 °F - 41.0 °F 62% 29.82 in 10.0 mi Variable 5.8 mph 17.3 mph N/A   Partly Cloudy
11:53 AM 52.0 °F - 37.9 °F 59% 29.82 in 10.0 mi WSW 8.1 mph 19.6 mph N/A   Mostly Cloudy
12:53 PM 55.9 °F - 39.0 °F 53% 29.82 in 10.0 mi WSW 8.1 mph 19.6 mph N/A   Partly Cloudy
1:53 PM 57.9 °F - 37.9 °F 47% 29.81 in 10.0 mi Variable 5.8 mph 24.2 mph N/A   Scattered Clouds
2:53 PM 57.9 °F - 35.1 °F 42% 29.81 in 10.0 mi Variable 6.9 mph - N/A   Clear
3:53 PM 59.0 °F - 34.0 °F 39% 29.80 in 10.0 mi Variable 4.6 mph 20.7 mph N/A   Clear
4:53 PM 59.0 °F - 34.0 °F 39% 29.81 in 10.0 mi WSW 10.4 mph 24.2 mph N/A   Clear
5:53 PM 57.0 °F - 33.1 °F 40% 29.83 in 10.0 mi Variable 5.8 mph 18.4 mph N/A   Mostly Cloudy
6:53 PM 55.0 °F - 34.0 °F 45% 29.85 in 10.0 mi Variable 3.5 mph - N/A   Overcast
7:53 PM 54.0 °F - 33.1 °F 45% 29.86 in 10.0 mi WSW 5.8 mph - N/A   Overcast
8:53 PM 53.1 °F - 34.0 °F 48% 29.88 in 10.0 mi Variable 3.5 mph - N/A   Overcast
9:53 PM 53.1 °F - 34.0 °F 48% 29.90 in 10.0 mi WSW 5.8 mph - N/A   Overcast
10:53 PM 51.1 °F - 35.1 °F 54% 29.92 in 10.0 mi NW 6.9 mph - N/A   Overcast
11:53 PM 50.0 °F - 35.1 °F 57% 29.93 in 10.0 mi WNW 5.8 mph - N/A   Overcast